�������l�o���
Date,Time,MP-1(��Sv/h),MP-2(��Sv/h),MP-3(��Sv/h),MP-4(��Sv/h),MP-5(��Sv/h),MP-6(��Sv/h),MP-7(��Sv/h),MP-8(��Sv/h),����,����(m/s),���J
2019/12/28,00:00,0.695,1.001,0.672,1.255,0.876,0.401,0.706,0.670,�k��,6.3,��
2019/12/28,00:10,0.696,0.998,0.672,1.255,0.874,0.401,0.705,0.670,�k��,5.5,��
2019/12/28,00:20,0.695,0.998,0.672,1.253,0.875,0.400,0.704,0.669,�k�k��,4.2,��
2019/12/28,00:30,0.694,0.998,0.672,1.254,0.875,0.402,0.705,0.670,�k��,3.6,��
2019/12/28,00:40,0.694,0.996,0.673,1.258,0.874,0.402,0.703,0.670,�k��,6.9,��
2019/12/28,00:50,0.695,0.998,0.673,1.255,0.875,0.400,0.705,0.671,�k��,6.6,��
2019/12/28,01:00,0.694,0.998,0.673,1.254,0.875,0.399,0.705,0.669,�k��,6.9,��
2019/12/28,01:10,0.695,1.000,0.672,1.256,0.873,0.400,0.704,0.670,�k��,6.0,��
2019/12/28,01:20,0.696,0.999,0.672,1.254,0.875,0.402,0.705,0.672,�k��,6.3,��
2019/12/28,01:30,0.693,0.996,0.670,1.253,0.874,0.400,0.705,0.671,�k��,6.4,��
2019/12/28,01:40,0.695,0.997,0.673,1.252,0.874,0.399,0.704,0.669,�k��,8.2,��
2019/12/28,01:50,0.694,0.999,0.674,1.253,0.874,0.400,0.706,0.671,�k��,6.6,��
2019/12/28,02:00,0.694,0.996,0.673,1.255,0.874,0.400,0.704,0.670,�k��,8.0,��
2019/12/28,02:10,0.694,0.998,0.674,1.256,0.874,0.401,0.705,0.670,���k��,10.8,��
2019/12/28,02:20,0.695,0.997,0.674,1.257,0.875,0.399,0.705,0.668,�k��,9.4,��
2019/12/28,02:30,0.697,0.999,0.671,1.256,0.873,0.399,0.706,0.669,�k��,9.1,��
2019/12/28,02:40,0.693,0.996,0.673,1.254,0.875,0.397,0.706,0.670,�k��,8.5,��
2019/12/28,02:50,0.695,0.997,0.674,1.255,0.874,0.398,0.707,0.669,�k��,8.5,��
2019/12/28,03:00,0.693,0.997,0.672,1.254,0.874,0.399,0.706,0.670,�k��,7.5,��
2019/12/28,03:10,0.695,0.997,0.672,1.256,0.874,0.398,0.704,0.671,�k��,6.9,��
2019/12/28,03:20,0.696,0.998,0.672,1.255,0.876,0.399,0.706,0.672,�k��,8.2,��
2019/12/28,03:30,0.694,0.996,0.673,1.257,0.876,0.400,0.708,0.672,�k��,7.4,��
2019/12/28,03:40,0.693,1.000,0.673,1.256,0.874,0.399,0.704,0.672,�k��,8.0,��
2019/12/28,03:50,0.695,0.997,0.671,1.255,0.873,0.401,0.706,0.669,�k��,7.7,��
2019/12/28,04:00,0.695,0.997,0.673,1.256,0.876,0.399,0.706,0.669,�k��,8.2,��
2019/12/28,04:10,0.696,1.000,0.674,1.256,0.876,0.399,0.705,0.670,�k��,8.2,��
2019/12/28,04:20,0.694,0.996,0.673,1.254,0.875,0.399,0.705,0.671,�k��,8.2,��
2019/12/28,04:30,0.694,0.998,0.672,1.254,0.876,0.401,0.707,0.671,�k��,8.5,��
2019/12/28,04:40,0.695,0.996,0.671,1.257,0.873,0.400,0.705,0.671,�k��,7.1,��
2019/12/28,04:50,0.694,0.995,0.673,1.256,0.873,0.400,0.706,0.669,�k��,8.2,��
2019/12/28,05:00,0.695,0.997,0.672,1.254,0.873,0.400,0.706,0.671,�k��,8.2,��
2019/12/28,05:10,0.695,0.997,0.672,1.255,0.876,0.399,0.706,0.673,�k��,8.0,��
2019/12/28,05:20,0.693,0.997,0.672,1.255,0.874,0.400,0.707,0.669,�k��,8.8,��
2019/12/28,05:30,0.693,0.996,0.672,1.256,0.876,0.399,0.707,0.670,�k��,9.1,��
2019/12/28,05:40,0.692,0.994,0.674,1.256,0.872,0.398,0.705,0.670,�k��,10.1,��
2019/12/28,05:50,0.696,0.995,0.671,1.254,0.874,0.400,0.707,0.671,�k��,9.6,��
2019/12/28,06:00,0.693,0.997,0.673,1.256,0.873,0.398,0.705,0.671,�k��,9.1,��
2019/12/28,06:10,0.695,0.997,0.673,1.256,0.873,0.399,0.707,0.670,�k��,11.2,��
2019/12/28,06:20,0.693,0.997,0.674,1.259,0.873,0.399,0.707,0.670,�k��,9.6,��
2019/12/28,06:30,0.694,0.995,0.673,1.257,0.872,0.399,0.706,0.671,�k��,9.4,��
2019/12/28,06:40,0.694,0.997,0.672,1.257,0.874,0.400,0.707,0.671,���k��,8.0,��
2019/12/28,06:50,0.695,0.997,0.672,1.257,0.872,0.400,0.706,0.670,���k��,8.8,��
2019/12/28,07:00,0.695,0.997,0.673,1.256,0.873,0.400,0.707,0.670,���k��,6.9,��
2019/12/28,07:10,0.694,0.997,0.673,1.255,0.875,0.399,0.706,0.671,�k��,6.9,��
2019/12/28,07:20,0.693,0.995,0.673,1.256,0.876,0.400,0.707,0.671,�k��,4.3,��
2019/12/28,07:30,0.694,0.997,0.672,1.258,0.874,0.399,0.706,0.671,�k��,4.0,��
2019/12/28,07:40,0.693,0.997,0.672,1.256,0.874,0.400,0.705,0.671,�k��,3.1,��
2019/12/28,07:50,0.693,0.996,0.672,1.255,0.876,0.400,0.707,0.671,�k��,2.8,��
2019/12/28,08:00,0.693,0.999,0.672,1.254,0.876,0.399,0.706,0.671,���k��,2.4,��
2019/12/28,08:10,0.694,0.998,0.671,1.258,0.874,0.400,0.705,0.671,�k��,2.3,��
2019/12/28,08:20,0.695,0.997,0.674,1.256,0.873,0.399,0.705,0.671,�k��,3.1,��
2019/12/28,08:30,0.694,0.997,0.673,1.257,0.872,0.400,0.705,0.672,���k��,4.3,��
2019/12/28,08:40,0.694,0.998,0.673,1.256,0.875,0.398,0.706,0.670,���k��,3.6,��
2019/12/28,08:50,0.695,0.999,0.671,1.255,0.874,0.399,0.705,0.670,�k��,3.3,��
2019/12/28,09:00,0.693,0.998,0.674,1.256,0.875,0.399,0.706,0.671,�k��,5.6,��
2019/12/28,09:10,0.695,1.000,0.674,1.256,0.875,0.399,0.706,0.672,�k��,6.0,��
2019/12/28,09:20,0.696,1.000,0.673,1.256,0.876,0.400,0.707,0.669,�k��,7.1,��
2019/12/28,09:30,0.696,1.000,0.675,1.257,0.875,0.399,0.706,0.671,���k��,6.6,��
2019/12/28,09:40,0.695,1.001,0.674,1.260,0.874,0.400,0.707,0.672,�k��,5.5,��
2019/12/28,09:50,0.697,1.000,0.674,1.258,0.874,0.400,0.707,0.671,���k��,6.1,��
2019/12/28,10:00,0.697,1.000,0.675,1.257,0.877,0.401,0.705,0.672,���k��,6.6,��
2019/12/28,10:10,0.697,0.998,0.673,1.255,0.875,0.400,0.706,0.672,���k��,6.7,��
2019/12/28,10:20,0.697,0.998,0.674,1.257,0.878,0.400,0.705,0.672,�k��,5.2,��
2019/12/28,10:30,0.698,0.998,0.675,1.257,0.878,0.402,0.707,0.672,�k��,6.7,��
2019/12/28,10:40,0.697,1.002,0.676,1.261,0.880,0.403,0.706,0.673,�k��,6.0,��
2019/12/28,10:50,0.696,1.001,0.675,1.257,0.878,0.401,0.708,0.671,�k��,4.2,��
2019/12/28,11:00,0.698,1.002,0.675,1.260,0.879,0.401,0.704,0.671,�k��,4.6,��
2019/12/28,11:10,0.700,1.003,0.676,1.258,0.880,0.400,0.705,0.671,�k��,3.8,��
2019/12/28,11:20,0.697,1.002,0.674,1.259,0.878,0.400,0.707,0.673,�k��,4.0,��
2019/12/28,11:30,0.697,1.002,0.678,1.262,0.879,0.401,0.706,0.672,�k�k��,4.3,��
2019/12/28,11:40,0.699,1.003,0.677,1.259,0.881,0.401,0.706,0.670,�k�k��,4.7,��
2019/12/28,11:50,0.698,1.003,0.675,1.261,0.879,0.402,0.705,0.672,�k�k��,3.5,��
2019/12/28,12:00,0.699,1.005,0.677,1.262,0.881,0.400,0.704,0.674,�k�k��,3.5,��
2019/12/28,12:10,0.698,1.004,0.676,1.259,0.878,0.402,0.706,0.672,�k�k��,3.3,��
2019/12/28,12:20,0.698,1.003,0.676,1.259,0.881,0.402,0.707,0.673,�k�k��,4.7,�L
2019/12/28,12:30,0.699,1.004,0.675,1.260,0.879,0.401,0.707,0.672,�k�k��,3.9,��
2019/12/28,12:40,0.699,1.004,0.677,1.261,0.881,0.401,0.706,0.671,�k�k��,4.2,��
2019/12/28,12:50,0.697,1.004,0.676,1.261,0.882,0.401,0.707,0.671,�k��,3.0,�L
2019/12/28,13:00,0.698,1.004,0.675,1.260,0.881,0.401,0.706,0.671,�k�k��,2.7,��
2019/12/28,13:10,0.699,1.004,0.676,1.261,0.880,0.401,0.707,0.673,�k,2.6,��
2019/12/28,13:20,0.699,1.004,0.677,1.260,0.882,0.400,0.706,0.673,�k,3.0,��
2019/12/28,13:30,0.699,1.005,0.679,1.259,0.882,0.401,0.706,0.674,�k�k��,3.5,��
2019/12/28,13:40,0.699,1.004,0.677,1.260,0.881,0.402,0.706,0.671,�k�k��,2.8,��
2019/12/28,13:50,0.699,1.006,0.675,1.258,0.881,0.401,0.705,0.672,�k��,3.1,��
2019/12/28,14:00,0.699,1.005,0.677,1.262,0.882,0.401,0.706,0.672,�k��,2.7,��
2019/12/28,14:10,0.700,1.003,0.676,1.259,0.882,0.402,0.708,0.672,�k��,4.0,��
2019/12/28,14:20,0.699,1.006,0.677,1.262,0.882,0.403,0.706,0.673,�k��,3.5,��
2019/12/28,14:30,0.698,1.004,0.677,1.261,0.881,0.401,0.708,0.672,�k��,2.3,��
2019/12/28,14:40,0.702,1.004,0.678,1.260,0.881,0.402,0.706,0.672,�k��,2.4,��
2019/12/28,14:50,0.698,1.004,0.676,1.261,0.882,0.403,0.707,0.672,�k��,2.2,��
2019/12/28,15:00,0.698,1.005,0.675,1.260,0.882,0.401,0.706,0.671,�k��,2.5,��
2019/12/28,15:10,0.699,1.004,0.676,1.261,0.880,0.402,0.706,0.672,�k��,1.5,��
2019/12/28,15:20,0.697,1.005,0.675,1.261,0.882,0.401,0.708,0.674,�k��,1.1,��
2019/12/28,15:30,0.698,1.006,0.677,1.260,0.884,0.401,0.707,0.671,�k��,3.5,��
2019/12/28,15:40,0.698,1.005,0.676,1.262,0.881,0.401,0.707,0.672,�k��,4.3,��
2019/12/28,15:50,0.699,1.004,0.678,1.263,0.880,0.401,0.706,0.671,�k��,3.9,��
2019/12/28,16:00,0.698,1.004,0.677,1.260,0.882,0.401,0.707,0.672,�k��,3.8,��
2019/12/28,16:10,0.697,1.004,0.675,1.260,0.881,0.400,0.706,0.672,�k��,3.8,��
2019/12/28,16:20,0.700,1.003,0.675,1.260,0.881,0.401,0.706,0.674,�k��,4.3,��
2019/12/28,16:30,0.697,1.002,0.676,1.261,0.880,0.400,0.705,0.672,�k��,3.8,��
2019/12/28,16:40,0.697,1.001,0.675,1.264,0.882,0.401,0.705,0.671,�k��,4.2,��
2019/12/28,16:50,0.697,1.006,0.674,1.261,0.880,0.400,0.706,0.671,���k��,3.9,��
2019/12/28,17:00,0.698,1.004,0.674,1.259,0.881,0.400,0.708,0.670,���k��,4.9,��
2019/12/28,17:10,0.699,1.002,0.675,1.261,0.883,0.400,0.708,0.672,���k��,4.4,��
2019/12/28,17:20,0.696,1.003,0.675,1.260,0.881,0.401,0.706,0.670,���k��,3.8,��
2019/12/28,17:30,0.697,1.004,0.676,1.262,0.883,0.400,0.707,0.671,���k��,4.1,��
2019/12/28,17:40,0.697,1.002,0.674,1.262,0.880,0.401,0.707,0.672,���k��,3.8,��
2019/12/28,17:50,0.698,1.004,0.676,1.259,0.882,0.400,0.705,0.670,���k��,4.1,��
2019/12/28,18:00,0.699,1.002,0.675,1.260,0.881,0.400,0.705,0.672,�k��,3.6,��
2019/12/28,18:10,0.695,1.003,0.676,1.261,0.881,0.400,0.706,0.671,�k��,4.4,��
2019/12/28,18:20,0.696,1.003,0.676,1.261,0.881,0.401,0.707,0.672,�k��,5.3,��
2019/12/28,18:30,0.698,1.004,0.675,1.261,0.881,0.400,0.704,0.673,���k��,5.5,��
2019/12/28,18:40,0.696,1.003,0.676,1.260,0.882,0.401,0.706,0.671,���k��,5.5,��
2019/12/28,18:50,0.696,1.002,0.676,1.260,0.883,0.398,0.706,0.671,���k��,4.2,��
2019/12/28,19:00,0.695,1.003,0.676,1.259,0.880,0.401,0.705,0.671,��,3.5,��
2019/12/28,19:10,0.695,1.004,0.676,1.260,0.882,0.400,0.706,0.671,���쐼,2.3,��
2019/12/28,19:20,0.697,1.000,0.677,1.263,0.881,0.400,0.706,0.670,���쐼,2.4,��
2019/12/28,19:30,0.696,1.004,0.675,1.262,0.881,0.401,0.704,0.671,���쐼,2.5,��
2019/12/28,19:40,0.697,1.003,0.673,1.262,0.882,0.400,0.705,0.670,�쐼,2.0,��
2019/12/28,19:50,0.696,1.001,0.674,1.260,0.879,0.400,0.705,0.671,�쐼,2.0,��
2019/12/28,20:00,0.697,1.003,0.675,1.260,0.882,0.400,0.705,0.670,�쐼,1.1,��
2019/12/28,20:10,0.696,1.005,0.676,1.262,0.882,0.400,0.705,0.672,�k��,1.3,��
2019/12/28,20:20,0.697,1.004,0.675,1.263,0.881,0.400,0.704,0.672,��,1.0,��
2019/12/28,20:30,0.697,1.001,0.676,1.260,0.883,0.399,0.704,0.672,�쐼,1.8,��
2019/12/28,20:40,0.696,1.002,0.674,1.262,0.880,0.400,0.705,0.671,�쐼,2.7,��
2019/12/28,20:50,0.696,1.002,0.675,1.263,0.880,0.400,0.706,0.671,���쐼,2.8,��
2019/12/28,21:00,0.695,1.003,0.676,1.261,0.883,0.400,0.705,0.673,�쐼,3.3,��
2019/12/28,21:10,0.696,1.005,0.674,1.260,0.882,0.401,0.705,0.671,���쐼,2.3,��
2019/12/28,21:20,0.695,1.002,0.675,1.261,0.881,0.399,0.706,0.671,���쐼,2.8,��
2019/12/28,21:30,0.696,1.002,0.674,1.260,0.881,0.400,0.704,0.671,���쐼,2.1,��
2019/12/28,21:40,0.694,1.003,0.674,1.259,0.880,0.401,0.706,0.670,���쐼,2.6,��
2019/12/28,21:50,0.696,1.002,0.673,1.261,0.881,0.401,0.705,0.671,���쐼,3.4,��
2019/12/28,22:00,0.695,1.002,0.677,1.261,0.884,0.400,0.704,0.671,���쐼,4.1,��
2019/12/28,22:10,0.694,1.004,0.675,1.262,0.881,0.400,0.704,0.670,��,3.6,��
2019/12/28,22:20,0.697,1.003,0.674,1.260,0.881,0.399,0.705,0.671,��,2.9,��
2019/12/28,22:30,0.697,1.000,0.674,1.260,0.878,0.400,0.705,0.670,��,2.7,��
2019/12/28,22:40,0.696,1.001,0.673,1.262,0.882,0.400,0.705,0.671,���쐼,2.1,��
2019/12/28,22:50,0.697,1.002,0.675,1.261,0.881,0.400,0.704,0.671,��,1.4,��
2019/12/28,23:00,0.696,1.003,0.676,1.260,0.881,0.401,0.705,0.671,��,1.7,��
2019/12/28,23:10,0.695,1.000,0.674,1.260,0.881,0.400,0.706,0.671,���쐼,2.6,��
2019/12/28,23:20,0.695,1.003,0.675,1.262,0.881,0.402,0.704,0.670,���쐼,3.6,��
2019/12/28,23:30,0.698,1.002,0.676,1.263,0.881,0.401,0.705,0.670,��,4.9,��
2019/12/28,23:40,0.696,1.003,0.678,1.260,0.880,0.400,0.706,0.670,���쐼,3.6,��
2019/12/28,23:50,0.695,1.002,0.673,1.263,0.880,0.401,0.705,0.671,��,3.8,��
